Hauptseite
METAR-TAF:

METAR-TAF

Flughäfen :

Flughafen Magdeburg-Cochstedt

Magdeburg, Deutschland

Breite: 51-51-18N, Länge: 11-25-08E, Höhe: 180 m

Beobachtung

Neuester Wetterbericht von vor 6 Stunden und 47 Minuten, um 08:20 UTC
Wind 5 kt aus Südwest
Temperatur 1°C
Luftfeuchtigkeit 86%
Luftdruck 1022 hPa
Sichtweite 10 km oder mehr

METAR: EDBC 280820Z AUTO 22005KT 9999 // BKN013/// 01/M01 Q1022

Zeit: 16:07 (15:07 UTC)


TAF: fehlend

Wetterbeobachtungen und Prognosen von mehr als 4000 Flughäfen (METAR und TAF Bericht).

Die verfügbaren Stationen werden durch gelbe und rote Markierungen auf der Karte dargestellt.

Führen Sie die Maus auf sie, um den Namen der Station zu sehen.

Darauf klicken, um die Beobachtung von Wetterbeobachtungen und Prognosen zu sehen.

Um die Karte zu ändern : klicken Sie auf den grünen Tasten mit einem schwarzen Kreuz Zum Vergrößern, auf den grünen Button mit einem Gedankenstrich zu verkleinern, oder auf die grünen Pfeile für benachbarte Karten.


METAR-TAF: